FW8937 Weather Reports


time (UTC)temp
F
wind
direction
speed
knots
gust
knots
rain 1hr
in
rain 24hr
in
rain mn
in
humidity
%
barometer
mb
20210801210444 63 153 4.3 8.7 0.00 0.58 0.00 70 1034.7
20210801205948 63 116 3.5 7.8 0.00 0.58 0.00 69 1034.7
20210801205432 62 46 3.5 7.8 0.00 0.58 0.00 74 1034.7
20210801204924 60 92 3.5 7.0 0.00 0.58 0.00 74 1034.7
20210801204423 60 69 3.5 7.8 0.00 0.58 0.00 69 1034.7
20210801203924 60 91 3.5 7.8 0.00 0.58 0.00 71 1034.9
20210801203406 60 68 3.5 7.0 0.00 0.58 0.00 73 1035.0
20210801202901 60 53 2.6 7.0 0.00 0.58 0.00 71 1035.0
20210801202359 59 84 2.6 7.0 0.00 0.58 0.00 73 1035.0
20210801201904 60 67 3.5 7.8 0.00 0.58 0.00 73 1035.2
20210801201344 60 51 3.5 7.8 0.00 0.58 0.00 74 1035.1
20210801200845 59 78 3.5 7.8 0.00 0.58 0.00 76 1035.1
20210801200330 59 41 3.5 7.0 0.00 0.58 0.00 77 1035.1
20210801195830 59 57 2.6 7.0 0.00 0.58 0.00 74 1035.1
20210801195319 59 71 2.6 8.7 0.00 0.58 0.00 76 1035.4
20210801194814 60 92 4.3 11.3 0.00 0.58 0.00 78 1035.4
20210801194311 60 72 3.5 11.3 0.00 0.58 0.00 76 1035.5
20210801193800 60 80 3.5 7.8 0.00 0.58 0.00 71 1035.5
20210801193259 61 61 3.5 7.8 0.00 0.58 0.00 76 1035.5
20210801192747 61 76 3.5 9.6 0.00 0.58 0.00 75 1035.5
20210801192245 59 71 3.5 10.4 0.00 0.58 0.00 76 1035.6
20210801191744 59 92 3.5 10.4 0.00 0.58 0.00 70 1035.6
20210801191245 59 87 4.3 8.7 0.00 0.58 0.00 74 1035.9
20210801190746 60 98 4.3 8.7 0.00 0.58 0.00 77 1035.8
20210801190245 60 94 4.3 8.7 0.00 0.58 0.00 72 1036.0
20210801185747 62 117 4.3 9.6 0.00 0.58 0.00 73 1036.0
20210801185246 63 105 4.3 10.4 0.00 0.58 0.00 75 1036.0
20210801184745 62 105 5.2 10.4 0.00 0.58 0.00 75 1036.0
20210801184250 62 86 5.2 10.4 0.00 0.58 0.00 77 1036.2
20210801183746 61 103 4.3 10.4 0.00 0.58 0.00 78 1036.3
20210801183247 60 128 3.5 8.7 0.00 0.58 0.00 75 1036.3
20210801182742 60 107 3.5 9.6 0.00 0.58 0.00 76 1036.3
20210801182243 60 114 3.5 9.6 0.00 0.58 0.00 78 1036.3
20210801181742 60 145 2.6 8.7 0.00 0.58 0.00 75 1036.3
20210801181247 60 131 3.5 7.0 0.00 0.58 0.00 74 1036.4
20210801180743 60 109 3.5 7.0 0.00 0.58 0.00 71 1036.4
20210801180239 60 133 2.6 6.1 0.00 0.58 0.00 74 1036.4
20210801175740 60 101 3.5 7.8 0.00 0.58 0.00 69 1036.3
20210801175241 60 88 3.5 8.7 0.00 0.58 0.00 76 1036.3
20210801174740 60 118 3.5 8.7 0.00 0.58 0.00 74 1036.3
20210801174241 60 114 3.5 7.8 0.00 0.58 0.00 74 1036.3
20210801173740 60 153 4.3 9.6 0.00 0.58 0.00 74 1036.4
20210801173240 60 97 4.3 9.6 0.00 0.58 0.00 78 1036.4
20210801172739 59 78 5.2 10.4 0.00 0.58 0.00 77 1036.4
20210801172243 58 95 5.2 10.4 0.00 0.58 0.00 79 1036.4
20210801171740 59 126 4.3 7.8 0.00 0.58 0.00 75 1036.4
20210801171240 59 90 3.5 7.8 0.00 0.58 0.00 78 1036.5
20210801170741 59 143 3.5 8.7 0.00 0.58 0.00 77 1036.7
20210801170240 59 117 2.6 8.7 0.00 0.58 0.00 73 1036.7
20210801165738 59 67 2.6 8.7 0.00 0.58 0.00 71 1036.7
20210801165239 59 61 3.5 8.7 0.00 0.58 0.00 73 1036.7
20210801164738 58 82 3.5 8.7 0.00 0.58 0.00 73 1036.5
20210801164240 59 110 3.5 7.8 0.00 0.58 0.00 71 1036.5
20210801163739 59 151 3.5 7.8 0.00 0.58 0.00 69 1036.5
20210801163234 59 125 3.5 8.7 0.00 0.58 0.00 72 1036.7
20210801162726 60 109 3.5 8.7 0.00 0.58 0.00 74 1036.4
20210801162221 60 93 4.3 8.7 0.00 0.58 0.00 67 1036.5
20210801161715 60 176 4.3 8.7 0.00 0.58 0.00 64 1036.5
20210801161209 61 173 4.3 10.4 0.00 0.58 0.00 67 1036.4
20210801160702 60 110 5.2 10.4 0.00 0.58 0.00 67 1036.5
20210801160157 59 107 4.3 9.6 0.00 0.58 0.00 72 1036.5
20210801155650 59 112 4.3 8.7 0.00 0.58 0.00 75 1036.5
20210801155144 58 172 3.5 7.0 0.00 0.58 0.00 77 1036.4
20210801154639 57 139 2.6 7.0 0.00 0.58 0.00 71 1036.4
20210801154133 58 79 2.6 7.0 0.00 0.58 0.00 86 1036.3
20210801153627 57 93 1.7 6.1 0.00 0.58 0.00 83 1036.4
20210801153121 56 123 0.9 4.3 0.00 0.58 0.00 82 1036.4
20210801152614 55 144 0.9 3.5 0.00 0.58 0.00 84 1036.4
20210801152109 53 184 0.9 2.6 0.00 0.58 0.00 88 1036.4
20210801151603 53 105 0.9 2.6 0.00 0.58 0.00 85 1036.3
20210801151104 53 101 0.0 1.7 0.00 0.58 0.00 87 1036.3
20210801150603 53 101 0.9 3.5 0.00 0.58 0.00 85 1036.3
20210801150100 53 101 1.7 3.5 0.00 0.58 0.00 83 1036.3
20210801145602 54 67 0.9 2.6 0.00 0.58 0.00 78 1036.3
20210801145100 54 67 0.9 2.6 0.00 0.58 0.00 83 1036.3
20210801144601 54 67 0.9 2.6 0.00 0.58 0.00 81 1036.3
20210801144100 53 67 0.9 2.6 0.00 0.58 0.00 82 1036.3
20210801143601 53 67 0.0 2.6 0.00 0.58 0.00 87 1036.2
20210801143101 53 330 0.9 1.7 0.00 0.58 0.00 81 1036.2
20210801142601 53 330 0.9 2.6 0.00 0.58 0.00 82 1036.2
20210801142101 52 330 0.9 2.6 0.00 0.58 0.00 92 1036.3
20210801141558 52 330 0.9 1.7 0.00 0.58 0.00 94 1036.2
20210801141058 51 330 0.9 2.6 0.00 0.58 0.00 93 1036.3
20210801140558 51 330 0.9 2.6 0.00 0.58 0.00 94 1036.3
20210801140056 51 330 0.9 2.6 0.00 0.58 0.00 94 1036.3
20210801135559 50 330 1.7 2.6 0.00 0.58 0.00 94 1036.3
20210801135057 50 330 1.7 2.6 0.00 0.58 0.00 94 1036.3
20210801134550 50 330 0.9 1.7 0.00 0.58 0.00 94 1036.3
20210801134046 50 330 1.7 2.6 0.00 0.58 0.00 93 1036.3
20210801133539 50 330 1.7 2.6 0.00 0.58 0.00 92 1036.2
20210801133032 50 330 1.7 2.6 0.00 0.58 0.00 93 1036.2
20210801132527 50 330 1.7 2.6 0.00 0.58 0.00 94 1036.2
20210801132020 50 330 2.6 3.5 0.00 0.58 0.00 94 1036.2
20210801131516 50 330 2.6 3.5 0.00 0.58 0.00 94 1035.9
20210801131009 50 330 1.7 3.5 0.00 0.58 0.00 93 1035.9
20210801130503 50 331 0.9 2.6 0.00 0.58 0.00 95 1035.8
20210801125957 50 331 0.9 1.7 0.00 0.58 0.00 95 1035.8
20210801125451 50 331 0.9 2.6 0.00 0.58 0.00 95 1035.8
20210801124945 50 331 1.7 2.6 0.00 0.58 0.00 96 1035.8
20210801124440 50 331 0.9 1.7 0.00 0.58 0.00 95 1035.6
20210801123932 50 331 0.9 1.7 0.00 0.58 0.00 95 1035.8
20210801123427 50 331 0.9 1.7 0.00 0.58 0.00 95 1035.8
20210801122921 50 331 0.9 1.7 0.00 0.58 0.00 95 1035.6
20210801122414 50 331 0.9 2.6 0.00 0.58 0.00 95 1035.6
20210801121908 49 331 0.9 2.6 0.00 0.58 0.00 95 1035.5
20210801121403 49 331 0.9 1.7 0.00 0.58 0.00 95 1035.6
20210801120857 49 331 1.7 1.7 0.00 0.58 0.00 95 1035.5
20210801120351 49 331 1.7 2.6 0.00 0.58 0.00 95 1035.5
20210801115845 49 331 1.7 2.6 0.00 0.58 0.00 95 1035.4
20210801115339 49 331 0.9 2.6 0.00 0.58 0.00 95 1035.4
20210801114839 49 331 0.9 1.7 0.00 0.58 0.00 95 1035.5
20210801114338 49 331 0.9 1.7 0.00 0.58 0.00 94 1035.5
20210801113837 49 331 0.9 1.7 0.00 0.58 0.00 94 1035.5
20210801113338 49 331 0.9 2.6 0.00 0.58 0.00 94 1035.4
20210801112838 49 331 1.7 2.6 0.00 0.58 0.00 94 1035.2
20210801112338 49 331 1.7 2.6 0.00 0.58 0.00 94 1035.4
20210801111838 49 331 1.7 2.6 0.00 0.58 0.00 93 1035.4
20210801111340 49 331 1.7 2.6 0.00 0.58 0.00 94 1035.4
20210801110839 49 330 0.9 2.6 0.00 0.58 0.00 93 1035.4
20210801110334 49 330 0.9 2.6 0.00 0.58 0.00 93 1035.5
20210801105835 49 330 1.7 3.5 0.00 0.58 0.00 92 1035.4
20210801105333 49 329 2.6 3.5 0.00 0.58 0.00 93 1035.2
20210801104836 49 329 2.6 4.3 0.00 0.58 0.00 93 1035.2
20210801104336 49 331 3.5 4.3 0.00 0.58 0.00 93 1035.2
20210801103835 49 320 3.5 4.3 0.00 0.58 0.00 93 1035.1
20210801103334 49 321 2.6 4.3 0.00 0.58 0.00 93 1035.1
20210801102833 49 327 2.6 3.5 0.00 0.58 0.00 93 1035.1
20210801102335 49 326 2.6 3.5 0.00 0.58 0.00 92 1035.1
20210801101829 49 321 2.6 4.3 0.00 0.58 0.00 92 1035.1
20210801101321 50 313 3.5 4.3 0.00 0.58 0.00 93 1035.1
20210801100816 49 300 3.5 4.3 0.00 0.58 0.00 94 1035.1
20210801100310 49 297 3.5 6.1 0.00 0.58 0.00 94 1035.1
20210801095805 50 304 4.3 6.1 0.00 0.58 0.00 94 1035.2
20210801095257 50 297 4.3 6.1 0.00 0.58 0.00 94 1035.1
20210801094752 50 288 3.5 6.1 0.00 0.58 0.00 94 1035.1
20210801094245 50 298 3.5 6.1 0.00 0.58 0.00 94 1035.1
20210801093740 50 300 3.5 7.0 0.00 0.58 0.00 94 1035.1
20210801093235 50 301 3.5 7.0 0.00 0.58 0.00 95 1035.1
20210801092729 50 301 4.3 6.1 0.00 0.58 0.00 95 1035.1
20210801092222 50 291 3.5 6.1 0.00 0.58 0.00 95 1035.1
20210801091717 50 295 3.5 6.1 0.00 0.58 0.00 95 1035.1
20210801091213 50 311 3.5 4.3 0.00 0.58 0.00 95 1035.1
20210801090704 50 310 3.5 6.1 0.00 0.58 0.00 94 1035.0
20210801090157 50 308 3.5 6.1 0.00 0.58 0.00 95 1035.1
20210801085650 50 329 3.5 4.3 0.00 0.58 0.00 95 1035.1
20210801085145 50 313 4.3 6.1 0.00 0.58 0.00 95 1035.1
20210801084638 50 303 4.3 6.1 0.00 0.58 0.00 95 1035.1
20210801084132 51 314 3.5 4.3 0.00 0.58 0.00 95 1035.1
20210801083626 51 302 3.5 6.1 0.00 0.58 0.00 95 1035.1
20210801083124 51 294 3.5 6.1 0.00 0.58 0.00 95 1035.1
20210801082614 51 301 3.5 4.3 0.00 0.58 0.00 95 1035.1
20210801082108 51 302 3.5 4.3 0.00 0.58 0.00 95 1035.2
20210801081602 51 302 3.5 4.3 0.00 0.58 0.00 95 1035.4
20210801081056 51 300 3.5 6.1 0.00 0.58 0.00 95 1035.4
20210801080550 51 294 3.5 6.1 0.00 0.58 0.00 95 1035.5
20210801080044 51 302 3.5 6.1 0.00 0.58 0.00 95 1035.5
20210801075538 51 300 3.5 6.1 0.00 0.58 0.00 95 1035.5
20210801075032 51 295 3.5 5.2 0.00 0.58 0.00 95 1035.5
20210801074525 51 284 3.5 5.2 0.00 0.58 0.00 95 1035.8
20210801074019 51 304 2.6 4.3 0.00 0.58 0.00 95 1035.8
20210801073514 51 301 3.5 6.1 0.00 0.59 0.00 95 1035.6
20210801073008 51 301 3.5 6.1 0.00 0.60 0.00 95 1035.8
20210801072502 51 294 2.6 4.3 0.00 0.60 0.00 95 1035.8
20210801072008 51 291 2.6 6.1 0.00 0.61 0.00 95 1035.9
20210801071450 51 284 2.6 6.1 0.00 0.62 0.00 95 1035.9
20210801070944 51 292 2.6 4.3 0.00 0.62 0.00 95 1036.0
20210801070439 51 286 2.6 5.2 0.00 0.62 0.00 95 1036.0
20210801065932 51 286 3.5 5.2 0.00 0.62 0.00 95 1036.0
20210801065426 51 307 3.5 4.3 0.00 0.62 0.00 95 1036.2
20210801064919 51 304 2.6 4.3 0.00 0.63 0.00 95 1036.2
20210801064415 51 298 2.6 4.3 0.00 0.63 0.00 95 1036.2
20210801063908 51 297 2.6 4.3 0.00 0.63 0.00 95 1036.3
20210801063403 51 306 2.6 4.3 0.00 0.63 0.00 95 1036.3
20210801062857 51 307 2.6 4.3 0.00 0.63 0.00 96 1036.3
20210801062350 51 304 2.6 3.5 0.00 0.63 0.00 96 1036.3
20210801061844 51 296 2.6 3.5 0.00 0.63 0.00 96 1036.3
20210801061339 51 296 2.6 3.5 0.00 0.63 0.00 96 1036.3
20210801060832 51 300 2.6 3.5 0.00 0.63 0.00 96 1036.3
20210801060326 51 301 1.7 3.5 0.00 0.63 0.00 96 1036.2
20210801055821 51 301 2.6 3.5 0.00 0.63 0.63 96 1036.2
20210801055317 51 292 1.7 3.5 0.00 0.63 0.63 96 1036.3
20210801054810 51 243 1.7 2.6 0.00 0.63 0.63 95 1036.2
20210801054304 51 182 1.7 2.6 0.00 0.63 0.63 96 1036.3
20210801053758 51 182 0.9 2.6 0.00 0.63 0.63 96 1036.2
20210801053252 51 182 0.9 2.6 0.00 0.63 0.63 96 1036.2
20210801052746 51 180 0.9 1.7 0.00 0.63 0.63 96 1036.2
20210801052239 51 175 0.9 2.6 0.00 0.63 0.63 96 1036.2
20210801051734 51 121 0.9 2.6 0.00 0.63 0.63 96 1036.0
20210801051227 51 135 0.9 1.7 0.00 0.63 0.63 96 1036.2
20210801050722 51 135 0.9 1.7 0.00 0.63 0.63 96 1036.2
20210801050216 51 142 0.9 2.6 0.00 0.63 0.63 96 1036.2
20210801045716 51 142 0.0 2.6 0.00 0.63 0.63 96 1036.0
20210801045212 51 292 0.0 1.7 0.00 0.66 0.63 96 1036.2
20210801044712 51 292 0.9 4.3 0.00 0.69 0.63 96 1036.3
20210801044212 51 290 0.9 4.3 0.00 0.72 0.63 95 1036.3
20210801043714 51 13 0.0 2.6 0.00 0.74 0.63 96 1036.2
20210801043213 51 13 0.0 2.6 0.00 0.75 0.63 95 1036.2
20210801042712 51 355 0.0 2.6 0.00 0.76 0.63 95 1036.3
20210801042214 51 355 0.0 2.6 0.00 0.77 0.63 95 1036.3
20210801041710 51 355 0.9 2.6 0.00 0.78 0.63 95 1036.3
20210801041209 51 355 0.9 2.6 0.00 0.79 0.63 95 1036.2
20210801040709 51 355 0.9 2.6 0.00 0.79 0.63 95 1036.2
20210801040208 51 355 0.9 3.5 0.00 0.79 0.63 95 1036.2
20210801035708 51 355 1.7 6.1 0.00 0.79 0.63 95 1036.2
20210801035207 51 10 1.7 6.1 0.00 0.80 0.63 95 1036.2
20210801034709 51 294 2.6 6.1 0.00 0.80 0.63 95 1036.2
20210801034208 51 284 2.6 6.1 0.00 0.81 0.63 95 1036.0
20210801033706 51 311 2.6 4.3 0.00 0.84 0.63 95 1035.9
20210801033207 51 292 2.6 6.1 0.00 0.85 0.63 95 1035.9
20210801032706 51 292 2.6 6.1 0.00 0.85 0.63 95 1035.9
20210801032206 51 301 1.7 4.3 0.00 0.85 0.63 95 1035.9
20210801031706 51 302 2.6 4.3 0.00 0.85 0.63 95 1035.8
20210801031207 51 300 2.6 5.2 0.00 0.85 0.63 95 1035.8
20210801030707 51 290 2.6 5.2 0.00 0.85 0.63 95 1035.8
20210801030206 51 320 2.6 5.2 0.00 0.85 0.63 95 1035.6
20210801025708 51 309 2.6 6.1 0.00 0.85 0.63 95 1035.6
20210801025208 51 306 3.5 6.1 0.00 0.85 0.63 95 1035.5
20210801024708 51 312 3.5 4.3 0.00 0.85 0.63 95 1035.5
20210801024206 51 298 2.6 4.3 0.00 0.85 0.63 95 1035.4
20210801023707 51 284 2.6 4.3 0.00 0.85 0.63 96 1035.4
20210801023206 51 284 2.6 5.2 0.00 0.85 0.63 95 1035.2
20210801022706 51 281 3.5 5.2 0.00 0.85 0.63 95 1035.2
20210801022205 51 296 3.5 5.2 0.00 0.85 0.63 96 1035.2
20210801021705 51 318 3.5 5.2 0.01 0.85 0.63 96 1035.2
20210801021159 51 311 3.5 6.1 0.01 0.85 0.63 96 1035.1
20210801020652 51 275 3.5 7.0 0.01 0.85 0.63 96 1035.1
20210801020148 51 295 3.5 7.0 0.01 0.85 0.63 96 1035.1
20210801015641 51 297 3.5 6.1 0.01 0.85 0.63 96 1035.0
20210801015135 51 277 3.5 6.1 0.01 0.85 0.63 96 1035.0
20210801014629 51 295 2.6 7.0 0.01 0.85 0.63 96 1035.0
20210801014123 51 306 3.5 7.0 0.02 0.85 0.63 96 1035.0
20210801013617 52 294 3.5 7.0 0.03 0.85 0.63 96 1035.0
20210801013110 52 300 3.5 7.0 0.03 0.85 0.63 96 1035.1
20210801012605 52 306 4.3 7.0 0.03 0.85 0.63 96 1035.1
20210801012059 51 314 4.3 7.0 0.04 0.85 0.63 96 1035.1
20210801011553 51 308 3.5 7.0 0.05 0.84 0.62 96 1035.1
20210801011047 51 297 2.6 6.1 0.08 0.84 0.62 96 1035.1
20210801010541 51 300 1.7 3.5 0.11 0.84 0.62 96 1035.1
20210801010035 51 11 1.7 4.3 0.14 0.84 0.62 96 1035.2
20210801005528 51 11 1.7 4.3 0.15 0.84 0.62 96 1035.1
20210801005023 52 9 0.9 4.3 0.17 0.84 0.62 96 1035.0
20210801004517 52 22 0.9 3.5 0.19 0.84 0.62 96 1035.0
20210801004011 52 22 1.7 3.5 0.19 0.83 0.61 96 1035.0
20210801003505 52 33 1.7 4.3 0.21 0.82 0.60 96 1035.0
20210801002959 52 54 1.7 7.8 0.23 0.82 0.60 96 1035.1
20210801002453 52 55 1.7 7.8 0.25 0.81 0.60 95 1035.1
20210801001946 52 41 2.6 10.4 0.26 0.80 0.58 95 1035.0
20210801001440 53 84 2.6 10.4 0.26 0.78 0.57 96 1035.1
20210801000935 53 78 1.7 3.5 0.25 0.75 0.53 95 1035.0
20210801000429 53 355 1.7 4.3 0.24 0.72 0.51 95 1035.0
20210731235923 53 343 1.7 4.3 0.24 0.70 0.48 95 1035.1
20210731235418 53 306 1.7 3.5 0.25 0.68 0.46 95 1035.0
20210731234911 53 309 2.6 5.2 0.24 0.66 0.45 95 1035.0
20210731234404 53 306 2.6 6.1 0.25 0.65 0.43 95 1035.0
20210731233859 53 331 2.6 6.1 0.24 0.63 0.42 95 1035.0
20210731233352 53 315 2.6 4.3 0.23 0.61 0.39 95 1035.0
20210731232846 53 284 2.6 6.1 0.21 0.58 0.37 95 1035.1
20210731232341 53 309 1.7 6.1 0.19 0.55 0.34 95 1035.0
20210731231835 53 294 1.7 5.2 0.22 0.53 0.32 95 1035.1
20210731231329 53 349 1.7 5.2 0.23 0.51 0.30 95 1035.1
20210731230823 53 9 2.6 7.8 0.23 0.50 0.28 94 1035.1
20210731230318 53 301 3.5 7.8 0.20 0.47 0.26 94 1035.1
20210731225811 53 323 2.6 7.8 0.18 0.45 0.23 94 1035.1
20210731225305 54 0 0.9 6.1 0.16 0.43 0.21 94 1035.1
20210731224800 54 300 1.7 6.1 0.14 0.41 0.19 94 1035.2
20210731224253 54 298 2.6 6.1 0.12 0.39 0.17 94 1035.0
20210731223754 54 312 1.7 5.2 0.11 0.38 0.17 94 1035.1
20210731223255 54 326 1.7 4.3 0.11 0.38 0.16 94 1035.1
20210731222754 54 323 2.6 7.8 0.10 0.37 0.15 93 1035.1
20210731222253 54 328 3.5 10.4 0.08 0.35 0.13 93 1035.0
20210731221754 55 343 4.3 10.4 0.03 0.30 0.09 92 1035.1
20210731221254 56 34 4.3 9.6 0.01 0.28 0.06 91 1035.1
20210731220756 57 55 2.6 8.7 0.00 0.27 0.05 90 1035.0
20210731220255 57 84 1.7 5.2 0.00 0.27 0.05 88 1034.9
20210731215753 57 64 1.7 5.2 0.00 0.27 0.05 86 1034.7
20210731215254 57 102 2.6 5.2 0.00 0.27 0.05 87 1034.7
20210731214755 58 64 2.6 5.2 0.00 0.27 0.05 86 1034.7
20210731214253 58 59 1.7 5.2 0.00 0.27 0.05 82 1034.7
20210731213751 58 79 0.9 4.3 0.00 0.27 0.05 82 1034.7
20210731213251 58 88 1.7 3.5 0.00 0.27 0.05 85 1034.7
20210731212751 58 82 1.7 3.5 0.00 0.27 0.05 83 1034.7
20210731212245 59 82 2.6 4.3 0.00 0.27 0.05 84 1034.9
20210731211746 58 82 1.7 4.3 0.00 0.27 0.05 85 1034.9
20210731211246 59 84 1.7 3.5 0.00 0.27 0.05 86 1035.0